Dades meteomassalio
Diari Summary for Marc 20, 2017 Units:  Metric    English   Both
« Previous Day
Next Day »
Diari Semanal Mensual Anual Personalitzat
  Maxima: Minima: Mijana:
Temperatura: -17.8 °C -15.2 °C -10.4 °C
Rosada: -17.8 °C -15.9 °C -13.9 °C
Humitat: Humidity % 41 % 69 %
Velocitat del vent: 0 km/h 0 km/h 2.3 km/h
Racha vent: 0 km/h - -
Vent:- - SSW
Pressio: 0 hPa 34269.7 hPa -
Pluja: 0 mm    
Historical Graphs
 
 
Tabular Data for Marc 20, 2017
Time Temperature Dew Point Pressure Wind Wind Speed Wind Gust Humidity Rainfall Rate (Hourly) solar Conditions
-17.8 °C -17.8 °C 0 hPa Calm     Humidity % 0 mm SolarRadiationWatts/m^2 W/m2 Conditions
00:00 -12.8 °C -14.6 °C 34405.1 hPa Calm     81 % 0 mm 0.0 W/m2 CLR
00:05 -12.9 °C -14.6 °C 34405.1 hPa Calm     81 % 0 mm 0.0 W/m2 CLR
00:10 -13 °C -14.7 °C 34405.1 hPa Calm     81 % 0 mm 0.0 W/m2 CLR
00:15 -13.2 °C -14.8 °C 34405.1 hPa Calm     81 % 0 mm 0.0 W/m2 CLR
00:20 -13.2 °C -14.8 °C 34405.1 hPa Calm     82 % 0 mm 0.0 W/m2 CLR
00:25 -13.3 °C -14.8 °C 34405.1 hPa Calm     83 % 0 mm 0.0 W/m2 CLR
00:30 -13.4 °C -14.9 °C 34405.1 hPa Calm     83 % 0 mm 0.0 W/m2 CLR
00:35 -13.4 °C -14.8 °C 34395 hPa Calm     84 % 0 mm 0.0 W/m2 CLR
00:40 -13.4 °C -14.8 °C 34395 hPa Calm     84 % 0 mm 0.0 W/m2 CLR
00:45 -13.4 °C -14.9 °C 34405.1 hPa Calm     84 % 0 mm 0.0 W/m2 CLR
00:50 -13.5 °C -14.9 °C 34405.1 hPa Calm     84 % 0 mm 0.0 W/m2 CLR
00:55 -13.6 °C -14.9 °C 34405.1 hPa Calm     84 % 0 mm 0.0 W/m2 CLR
01:00 -13.7 °C -14.9 °C 34405.1 hPa Calm     85 % 0 mm 0.0 W/m2 CLR
01:05 -13.7 °C -15 °C 34405.1 hPa Calm     85 % 0 mm 0.0 W/m2 CLR
01:10 -13.7 °C -15 °C 34395 hPa Calm     85 % 0 mm 0.0 W/m2 CLR
01:15 -13.7 °C -14.9 °C 34395 hPa Calm     86 % 0 mm 0.0 W/m2 CLR
01:20 -13.6 °C -14.8 °C 34405.1 hPa Calm     86 % 0 mm 0.0 W/m2 CLR
01:25 -13.6 °C -14.9 °C 34405.1 hPa Calm     84 % 0 mm 0.0 W/m2 CLR
01:30 -13.6 °C -14.9 °C 34405.1 hPa Calm     85 % 0 mm 0.0 W/m2 CLR
01:35 -13.6 °C -14.9 °C 34405.1 hPa Calm     85 % 0 mm 0.0 W/m2 CLR
01:40 -13.7 °C -14.9 °C 34405.1 hPa Calm     85 % 0 mm 0.0 W/m2 CLR
01:45 -13.7 °C -15.1 °C 34405.1 hPa Calm     85 % 0 mm 0.0 W/m2 CLR
01:50 -13.8 °C -15.1 °C 34405.1 hPa Calm     85 % 0 mm 0.0 W/m2 CLR
01:55 -13.8 °C -15.1 °C 34395 hPa Calm     86 % 0 mm 0.0 W/m2 CLR
02:00 -13.8 °C -15.1 °C 34395 hPa Calm     86 % 0 mm 0.0 W/m2 CLR
02:05 -13.8 °C -14.9 °C 34395 hPa Calm     86 % 0 mm 0.0 W/m2 CLR
02:10 -13.7 °C -14.9 °C 34395 hPa Calm     86 % 0 mm 0.0 W/m2 CLR
02:15 -13.7 °C -14.9 °C 34395 hPa Calm     86 % 0 mm 0.0 W/m2 CLR
02:20 -13.7 °C -15 °C 34395 hPa Calm     85 % 0 mm 0.0 W/m2 CLR
02:25 -13.7 °C -15 °C 34395 hPa Calm     85 % 0 mm 0.0 W/m2 CLR
02:30 -13.7 °C -15.1 °C 34395 hPa Calm     85 % 0 mm 0.0 W/m2 CLR
02:35 -13.7 °C -15.1 °C 34395 hPa Calm     85 % 0 mm 0.0 W/m2 CLR
02:40 -13.8 °C -15.1 °C 34395 hPa Calm     85 % 0 mm 0.0 W/m2 CLR
02:45 -13.7 °C -14.9 °C 34395 hPa Calm     86 % 0 mm 0.0 W/m2 CLR
02:50 -13.7 °C -14.9 °C 34395 hPa Calm     86 % 0 mm 0.0 W/m2 CLR
02:55 -13.7 °C -14.9 °C 34395 hPa Calm     86 % 0 mm 0.0 W/m2 CLR
03:00 -13.7 °C -15 °C 34395 hPa Calm     85 % 0 mm 0.0 W/m2 CLR
03:06 -13.7 °C -15.1 °C 34395 hPa Calm     85 % 0 mm 0.0 W/m2 CLR
03:11 -13.8 °C -15.1 °C 34395 hPa Calm     85 % 0 mm 0.0 W/m2 CLR
03:16 -13.8 °C -15.2 °C 34395 hPa Calm     85 % 0 mm 0.0 W/m2 CLR
03:21 -13.9 °C -15.1 °C 34384.8 hPa Calm     86 % 0 mm 0.0 W/m2 CLR
03:26 -13.9 °C -15.1 °C 34395 hPa Calm     86 % 0 mm 0.0 W/m2 CLR
03:31 -13.9 °C -15.1 °C 34395 hPa Calm     86 % 0 mm 0.0 W/m2 CLR
03:36 -14 °C -15.2 °C 34384.8 hPa Calm     86 % 0 mm 0.0 W/m2 CLR
03:41 -14.1 °C -15.2 °C 34384.8 hPa Calm     86 % 0 mm 0.0 W/m2 CLR
03:46 -14.1 °C -15.2 °C 34384.8 hPa Calm     87 % 0 mm 0.0 W/m2 CLR
03:51 -14.1 °C -15.2 °C 34384.8 hPa Calm     87 % 0 mm 0.0 W/m2 CLR
03:56 -14.2 °C -15.3 °C 34384.8 hPa Calm     87 % 0 mm 0.0 W/m2 CLR
04:01 -14.2 °C -15.2 °C 34384.8 hPa Calm     88 % 0 mm 0.0 W/m2 CLR
04:06 -14.2 °C -15.2 °C 34384.8 hPa Calm     88 % 0 mm 0.0 W/m2 CLR
04:11 -14.3 °C -15.3 °C 34395 hPa Calm     88 % 0 mm 0.0 W/m2 CLR
04:16 -14.3 °C -15.3 °C 34384.8 hPa Calm     88 % 0 mm 0.0 W/m2 CLR
04:21 -14.3 °C -15.4 °C 34384.8 hPa Calm     88 % 0 mm 0.0 W/m2 CLR
04:26 -14.3 °C -15.4 °C 34384.8 hPa Calm     88 % 0 mm 0.0 W/m2 CLR
04:31 -14.4 °C -15.4 °C 34384.8 hPa Calm     88 % 0 mm 0.0 W/m2 CLR
04:36 -14.4 °C -15.4 °C 34384.8 hPa Calm     88 % 0 mm 0.0 W/m2 CLR
04:41 -14.5 °C -15.5 °C 34384.8 hPa Calm     88 % 0 mm 0.0 W/m2 CLR
04:46 -14.5 °C -15.4 °C 34384.8 hPa Calm     89 % 0 mm 0.0 W/m2 CLR
04:51 -14.5 °C -15.4 °C 34384.8 hPa Calm     89 % 0 mm 0.0 W/m2 CLR
04:56 -14.6 °C -15.4 °C 34384.8 hPa Calm     89 % 0 mm 0.0 W/m2 CLR
05:01 -14.5 °C -15.4 °C 34384.8 hPa Calm     89 % 0 mm 0.0 W/m2 CLR
05:06 -14.6 °C -15.5 °C 34395 hPa Calm     89 % 0 mm 0.0 W/m2 CLR
05:11 -14.6 °C -15.6 °C 34395 hPa Calm     89 % 0 mm 0.0 W/m2 CLR
05:16 -14.7 °C -15.6 °C 34395 hPa Calm     89 % 0 mm 0.0 W/m2 CLR
05:21 -14.8 °C -15.7 °C 34395 hPa Calm     89 % 0 mm 0.0 W/m2 CLR
05:26 -14.8 °C -15.6 °C 34395 hPa Calm     90 % 0 mm 0.0 W/m2 CLR
05:31 -14.8 °C -15.7 °C 34395 hPa Calm     90 % 0 mm 0.0 W/m2 CLR
05:36 -14.8 °C -15.7 °C 34395 hPa Calm     90 % 0 mm 0.0 W/m2 CLR
05:41 -14.8 °C -15.6 °C 34395 hPa Calm     90 % 0 mm 0.0 W/m2 CLR
05:46 -14.8 °C -15.7 °C 34395 hPa Calm     90 % 0 mm 0.0 W/m2 CLR
05:51 -14.8 °C -15.7 °C 34395 hPa Calm     90 % 0 mm 0.0 W/m2 CLR
05:56 -14.9 °C -15.7 °C 34395 hPa Calm     90 % 0 mm 0.0 W/m2 CLR
06:01 -14.9 °C -15.8 °C 34405.1 hPa Calm     90 % 0 mm 0.0 W/m2 CLR
06:06 -14.9 °C -15.8 °C 34395 hPa Calm     90 % 0 mm 0.0 W/m2 CLR
06:11 -15 °C -15.8 °C 34405.1 hPa Calm     90 % 0 mm 0.0 W/m2 CLR
06:16 -14.9 °C -15.7 °C 34395 hPa Calm     91 % 0 mm 0.0 W/m2 CLR
06:21 -14.9 °C -15.7 °C 34395 hPa Calm     91 % 0 mm 0.0 W/m2 CLR
06:26 -14.9 °C -15.7 °C 34395 hPa Calm     91 % 0 mm 0.0 W/m2 CLR
06:31 -14.9 °C -15.7 °C 34395 hPa Calm     91 % 0 mm 0.0 W/m2 CLR
06:36 -14.9 °C -15.7 °C 34395 hPa Calm     91 % 0 mm 0.0 W/m2 CLR
06:41 -14.9 °C -15.7 °C 34405.1 hPa Calm     91 % 0 mm 0.0 W/m2 CLR
06:46 -15.1 °C -15.8 °C 34395 hPa Calm     91 % 0 mm 0.0 W/m2 CLR
06:51 -15.1 °C -15.9 °C 34395 hPa Calm     90 % 0 mm 0.0 W/m2 CLR
06:56 -15.1 °C -15.9 °C 34405.1 hPa Calm     91 % 0 mm 0.0 W/m2 CLR
07:01 -15.1 °C -15.9 °C 34405.1 hPa Calm     91 % 0 mm 0.0 W/m2 OVC
07:06 -15.1 °C -15.9 °C 34405.1 hPa Calm     91 % 0 mm 5.0 W/m2 OVC
07:11 -15.2 °C -15.9 °C 34405.1 hPa Calm     91 % 0 mm 9.0 W/m2 BKN
07:16 -15.2 °C -15.9 °C 34405.1 hPa Calm     91 % 0 mm 12.0 W/m2 BKN
07:21 -15.2 °C -15.9 °C 34405.1 hPa Calm     91 % 0 mm 14.0 W/m2 BKN
07:26 -15.1 °C -15.8 °C 34405.1 hPa Calm     91 % 0 mm 18.0 W/m2 BKN
07:31 -15.1 °C -15.8 °C 34418.7 hPa Calm     91 % 0 mm 19.0 W/m2 BKN
07:36 -14.9 °C -15.7 °C 34418.7 hPa Calm     91 % 0 mm 23.0 W/m2 BKN
07:41 -14.9 °C -15.7 °C 34418.7 hPa Calm     91 % 0 mm 47.0 W/m2 BKN
07:46 -14.8 °C -15.6 °C 34418.7 hPa Calm     91 % 0 mm 54.0 W/m2 SCT
07:51 -14.8 °C -15.6 °C 34418.7 hPa Calm     91 % 0 mm 72.0 W/m2 FEW
07:56 -14.8 °C -15.5 °C 34418.7 hPa Calm     91 % 0 mm 74.0 W/m2 FEW
08:01 -14.6 °C -15.4 °C 34418.7 hPa Calm     91 % 0 mm 88.0 W/m2 FEW
08:06 -14.4 °C -15.2 °C 34418.7 hPa Calm     91 % 0 mm 100.0 W/m2 FEW
08:11 -14.1 °C -14.9 °C 34418.7 hPa Calm     91 % 0 mm 84.0 W/m2 CLR
08:16 -13.9 °C -14.8 °C 34418.7 hPa Calm     90 % 0 mm 123.0 W/m2 CLR
08:21 -13.8 °C -14.8 °C 34418.7 hPa Calm     89 % 0 mm 169.0 W/m2 CLR
08:26 -13.7 °C -14.8 °C 34418.7 hPa Calm     88 % 0 mm 185.0 W/m2 CLR
08:31 -13.6 °C -14.6 °C 34418.7 hPa Calm     88 % 0 mm 202.0 W/m2 CLR
08:36 -13.3 °C -14.4 °C 34418.7 hPa Calm     87 % 0 mm 218.0 W/m2 CLR
08:41 -13 °C -14.2 °C 34418.7 hPa Calm     86 % 0 mm 234.0 W/m2 CLR
08:46 -12.7 °C -14.1 °C 34418.7 hPa Calm     85 % 0 mm 251.0 W/m2 CLR
08:51 -12.5 °C -13.9 °C 34418.7 hPa Calm     84 % 0 mm 265.0 W/m2 CLR
08:56 -12.2 °C -13.8 °C 34418.7 hPa Calm     82 % 0 mm 281.0 W/m2 CLR
09:01 -12 °C -13.7 °C 34418.7 hPa Calm     81 % 0 mm 299.0 W/m2 CLR
09:07 -11.6 °C -13.6 °C 34418.7 hPa Calm     79 % 0 mm 322.0 W/m2 CLR
09:12 -11.3 °C -13.5 °C 34418.7 hPa Calm     77 % 0 mm 336.0 W/m2 CLR
09:17 -11.2 °C -13.6 °C 34405.1 hPa Calm     75 % 0 mm 355.0 W/m2 CLR
09:27 -11 °C -13.5 °C 34405.1 hPa Calm     74 % 0 mm 380.0 W/m2 CLR
09:32 -10.9 °C -13.6 °C 34405.1 hPa Calm     73 % 0 mm 408.0 W/m2 CLR
09:37 -10.8 °C -13.4 °C 34405.1 hPa Calm     73 % 0 mm 369.0 W/m2 CLR
09:42 -10.7 °C -13.4 °C 34405.1 hPa Calm     72 % 0 mm 427.0 W/m2 CLR
09:47 -10.5 °C -13.2 °C 34405.1 hPa Calm     72 % 0 mm 441.0 W/m2 CLR
09:52 -10.3 °C -13.2 °C 34395 hPa Calm     71 % 0 mm 452.0 W/m2 CLR
09:57 -10.1 °C -13.2 °C 34405.1 hPa Calm     69 % 0 mm 464.0 W/m2 CLR
10:02 -9.9 °C -13.2 °C 34405.1 hPa Calm     68 % 0 mm 478.0 W/m2 CLR
10:07 -9.8 °C -13.2 °C 34395 hPa Calm     67 % 0 mm 492.0 W/m2 CLR
10:12 -9.6 °C -12.8 °C 34395 hPa Calm     68 % 0 mm 506.0 W/m2 CLR
10:17 -9.2 °C -12.9 °C 34395 hPa Calm     64 % 0 mm 520.0 W/m2 CLR
10:22 -9 °C -13 °C 34395 hPa Calm     62 % 0 mm 533.0 W/m2 CLR
10:27 -8.8 °C -12.8 °C 34395 hPa Calm     63 % 0 mm 545.0 W/m2 CLR
10:32 -8.7 °C -12.9 °C 34395 hPa Calm     61 % 0 mm 555.0 W/m2 CLR
10:37 -8.6 °C -13 °C 34395 hPa Calm     59 % 0 mm 568.0 W/m2 CLR
10:42 -8.5 °C -12.8 °C 34384.8 hPa Calm     60 % 0 mm 580.0 W/m2 CLR
10:47 -8.4 °C -12.8 °C 34384.8 hPa NNW 3.1 km/h   59 % 0 mm 592.0 W/m2 CLR
10:52 -8.3 °C -12.9 °C 34384.8 hPa NNW 11.9 km/h 11.9 km/h 58 % 0 mm 601.0 W/m2 CLR
10:57 -8.3 °C -12.9 °C 34384.8 hPa WNW 9 km/h 9 km/h 58 % 0 mm 612.0 W/m2 CLR
11:02 -8.4 °C -13 °C 34384.8 hPa NNW 11.9 km/h 11.9 km/h 58 % 0 mm 624.0 W/m2 CLR
11:07 -8.3 °C -13.1 °C 34384.8 hPa Calm     57 % 0 mm 631.0 W/m2 CLR
11:12 -8.2 °C -13 °C 34384.8 hPa NNE 9 km/h 9 km/h 57 % 0 mm 635.0 W/m2 CLR
11:17 -8.1 °C -13 °C 34371.3 hPa West 9 km/h 9 km/h 56 % 0 mm 652.0 W/m2 CLR
11:22 -8.1 °C -13 °C 34371.3 hPa NNE 9 km/h 9 km/h 56 % 0 mm 652.0 W/m2 CLR
11:27 -8 °C -12.7 °C 34371.3 hPa NNW 11.9 km/h 11.9 km/h 58 % 0 mm 671.0 W/m2 CLR
11:32 -7.9 °C -13 °C 34371.3 hPa North 18.2 km/h 18.2 km/h 55 % 0 mm 684.0 W/m2 CLR
11:37 -7.9 °C -13 °C 34371.3 hPa WNW 11.9 km/h 11.9 km/h 55 % 0 mm 694.0 W/m2 CLR
11:42 -7.9 °C -13.1 °C 34371.3 hPa North 9 km/h 9 km/h 54 % 0 mm 701.0 W/m2 CLR
11:47 -7.7 °C -13 °C 34371.3 hPa NW 18.2 km/h 18.2 km/h 54 % 0 mm 717.0 W/m2 CLR
11:52 -7.8 °C -13 °C 34371.3 hPa Calm     54 % 0 mm 724.0 W/m2 CLR
11:57 -7.6 °C -12.6 °C 34371.3 hPa North 9 km/h 9 km/h 56 % 0 mm 712.0 W/m2 CLR
12:02 -7.6 °C -12.7 °C 34371.3 hPa WNW 17.9 km/h 17.9 km/h 55 % 0 mm 737.0 W/m2 CLR
12:07 -7.4 °C -12.7 °C 34371.3 hPa NE 9 km/h 9 km/h 54 % 0 mm 737.0 W/m2 CLR
12:12 -7.4 °C -12.7 °C 34361.1 hPa WNW 15 km/h   54 % 0 mm 740.0 W/m2 CLR
12:17 -7.3 °C -12.8 °C 34361.1 hPa North 3.1 km/h   53 % 0 mm 733.0 W/m2 CLR
12:22 -7.3 °C -12.7 °C 34361.1 hPa North 15.6 km/h 15.6 km/h 53 % 0 mm 737.0 W/m2 CLR
12:27 -7.3 °C -12.6 °C 34361.1 hPa North 17.9 km/h 17.9 km/h 54 % 0 mm 742.0 W/m2 CLR
12:32 -7.4 °C -12.9 °C 34361.1 hPa West 3.1 km/h   52 % 0 mm 744.0 W/m2 CLR
12:37 -7.3 °C -12.6 °C 34347.6 hPa North 15 km/h 15 km/h 54 % 0 mm 745.0 W/m2 CLR
12:42 -7.3 °C -12.4 °C 34347.6 hPa NW 9 km/h   55 % 0 mm 749.0 W/m2 CLR
12:47 -7.3 °C -13.1 °C 34347.6 hPa Calm     51 % 0 mm 749.0 W/m2 CLR
12:52 -7.2 °C -12.8 °C 34347.6 hPa NNE 9 km/h 9 km/h 52 % 0 mm 751.0 W/m2 CLR
12:57 -7.1 °C -12.8 °C 34347.6 hPa Calm     51 % 0 mm 752.0 W/m2 CLR
13:02 -6.9 °C -12.4 °C 34347.6 hPa NE 11.9 km/h 11.9 km/h 53 % 0 mm 754.0 W/m2 CLR
13:07 -6.8 °C -12.6 °C 34347.6 hPa NE 17.9 km/h 17.9 km/h 51 % 0 mm 756.0 W/m2 CLR
13:12 -6.8 °C -12.1 °C 34337.4 hPa NW 7.7 km/h 7.7 km/h 54 % 0 mm 754.0 W/m2 CLR
13:17 -6.7 °C -12.6 °C 34337.4 hPa Calm     51 % 0 mm 756.0 W/m2 CLR
13:22 -6.6 °C -12.2 °C 34337.4 hPa Calm     52 % 0 mm 754.0 W/m2 CLR
13:27 -6.3 °C -12.2 °C 34337.4 hPa NNW 9 km/h   51 % 0 mm 751.0 W/m2 CLR
13:32 -6.3 °C -12.3 °C 34337.4 hPa NE 6 km/h 6 km/h 50 % 0 mm 752.0 W/m2 CLR
13:37 -6.2 °C -12.2 °C 34327.3 hPa NNW 10.3 km/h 10.3 km/h 50 % 0 mm 751.0 W/m2 CLR
13:43 -6.3 °C -12.7 °C 34327.3 hPa NNW 20.9 km/h 20.9 km/h 48 % 0 mm 745.0 W/m2 CLR
13:48 -6.4 °C -12.6 °C 34327.3 hPa Calm     49 % 0 mm 744.0 W/m2 CLR
13:53 -6.5 °C -12.8 °C 34327.3 hPa NE 15 km/h 15 km/h 48 % 0 mm 738.0 W/m2 CLR
13:58 -6.4 °C -12.8 °C 34327.3 hPa Calm     48 % 0 mm 737.0 W/m2 CLR
14:03 -6.3 °C -12.3 °C 34313.7 hPa WNW 12.9 km/h 12.9 km/h 50 % 0 mm 731.0 W/m2 CLR
14:08 -6.2 °C -12.6 °C 34313.7 hPa Calm     48 % 0 mm 724.0 W/m2 CLR
14:13 -6.2 °C -12.3 °C 34313.7 hPa Calm     49 % 0 mm 721.0 W/m2 CLR
14:18 -6.1 °C -12.4 °C 34313.7 hPa NNE 15.6 km/h 15.6 km/h 48 % 0 mm 714.0 W/m2 CLR
14:23 -6.1 °C -12.6 °C 34313.7 hPa Calm     47 % 0 mm 710.0 W/m2 CLR
14:28 -6.1 °C -12.7 °C 34303.6 hPa Calm     46 % 0 mm 703.0 W/m2 CLR
14:33 -5.9 °C -12.8 °C 34303.6 hPa WSW 3.1 km/h 3.1 km/h 45 % 0 mm 698.0 W/m2 CLR
14:38 -6 °C -12.9 °C 34303.6 hPa Calm     45 % 0 mm 693.0 W/m2 CLR
14:43 -5.9 °C -12.9 °C 34303.6 hPa Calm     45 % 0 mm 686.0 W/m2 CLR
14:48 -5.9 °C -12.7 °C 34303.6 hPa Calm     46 % 0 mm 673.0 W/m2 CLR
14:53 -5.9 °C -12.8 °C 34303.6 hPa NNE 11.9 km/h 11.9 km/h 45 % 0 mm 668.0 W/m2 CLR
14:58 -5.8 °C -12.7 °C 34293.4 hPa Calm     45 % 0 mm 661.0 W/m2 CLR
15:03 -5.8 °C -12.7 °C 34293.4 hPa West 3.1 km/h 3.1 km/h 45 % 0 mm 652.0 W/m2 CLR
15:08 -5.7 °C -12.4 °C 34293.4 hPa Calm     46 % 0 mm 640.0 W/m2 CLR
15:13 -5.6 °C -12.7 °C 34293.4 hPa ENE 9 km/h 9 km/h 44 % 0 mm 631.0 W/m2 CLR
15:18 -5.6 °C -12.6 °C 34293.4 hPa NNE 9 km/h 9 km/h 45 % 0 mm 624.0 W/m2 CLR
15:23 -5.7 °C -12.9 °C 34293.4 hPa Calm     43 % 0 mm 615.0 W/m2 CLR
15:28 -5.7 °C -12.7 °C 34293.4 hPa ENE 9 km/h 9 km/h 44 % 0 mm 606.0 W/m2 CLR
15:33 -5.7 °C -13 °C 34293.4 hPa Calm     43 % 0 mm 598.0 W/m2 CLR
15:38 -5.7 °C -12.9 °C 34279.9 hPa Calm     43 % 0 mm 591.0 W/m2 CLR
15:43 -5.5 °C -13 °C 34293.4 hPa ENE 6 km/h 6 km/h 42 % 0 mm 587.0 W/m2 CLR
15:53 -5.3 °C -12.7 °C 34279.9 hPa WNW 3.1 km/h   43 % 0 mm 468.0 W/m2 CLR
15:58 -5.2 °C -12.7 °C 34279.9 hPa Calm     42 % 0 mm 529.0 W/m2 CLR
16:03 -5.1 °C -12.8 °C 34279.9 hPa NNW 9 km/h 9 km/h 41 % 0 mm 543.0 W/m2 CLR
16:08 -5.2 °C -12.3 °C 34279.9 hPa Calm     44 % 0 mm 455.0 W/m2 CLR
16:13 -5.2 °C -12.8 °C 34279.9 hPa Calm     42 % 0 mm 425.0 W/m2 CLR
16:18 -5.2 °C -13 °C 34279.9 hPa Calm     41 % 0 mm 473.0 W/m2 CLR
16:23 -5.2 °C -13 °C 34279.9 hPa NNE 11.9 km/h 11.9 km/h 41 % 0 mm 446.0 W/m2 CLR
16:28 -5.3 °C -13.1 °C 34279.9 hPa ENE 6 km/h 6 km/h 41 % 0 mm 462.0 W/m2 CLR
16:33 -5.3 °C -12.8 °C 34269.7 hPa NE 9 km/h 9 km/h 42 % 0 mm 468.0 W/m2 CLR
16:38 -5.2 °C -13 °C 34279.9 hPa NE 11.9 km/h 11.9 km/h 41 % 0 mm 446.0 W/m2 CLR
16:43 -5.2 °C -12.7 °C 34269.7 hPa North 11.9 km/h 11.9 km/h 42 % 0 mm 403.0 W/m2 CLR
16:48 -5.2 °C -12.9 °C 34269.7 hPa North 23.8 km/h 23.8 km/h 41 % 0 mm 369.0 W/m2 CLR
16:53 -5.3 °C -12.8 °C 34269.7 hPa NW 15 km/h 15 km/h 42 % 0 mm 397.0 W/m2 CLR
16:58 -5.4 °C -13.1 °C 34269.7 hPa NNW 17.9 km/h 17.9 km/h 41 % 0 mm 380.0 W/m2 CLR
17:03 -5.4 °C -12.9 °C 34269.7 hPa North 3.1 km/h   42 % 0 mm 362.0 W/m2 CLR
17:08 -5.4 °C -12.9 °C 34269.7 hPa North 10.3 km/h 10.3 km/h 42 % 0 mm 348.0 W/m2 CLR
17:13 -5.4 °C -12.9 °C 34269.7 hPa North 20.9 km/h 20.9 km/h 42 % 0 mm 287.0 W/m2 CLR
17:18 -5.6 °C -13.1 °C 34269.7 hPa North 15 km/h 15 km/h 42 % 0 mm 267.0 W/m2 CLR
17:23 -5.6 °C -13.3 °C 34269.7 hPa North 10.3 km/h 10.3 km/h 41 % 0 mm 253.0 W/m2 CLR
17:28 -5.6 °C -13.1 °C 34269.7 hPa NNW 17.9 km/h 17.9 km/h 42 % 0 mm 241.0 W/m2 CLR
17:33 -5.7 °C -13 °C 34269.7 hPa Calm     43 % 0 mm 220.0 W/m2 CLR
17:38 -5.7 °C -12.8 °C 34269.7 hPa NNW 3.1 km/h   44 % 0 mm 185.0 W/m2 CLR
17:43 -5.8 °C -13.1 °C 34279.9 hPa Calm     43 % 0 mm 206.0 W/m2 CLR
17:48 -5.7 °C -12.8 °C 34279.9 hPa Calm     44 % 0 mm 197.0 W/m2 CLR
17:53 -5.7 °C -13 °C 34269.7 hPa Calm     43 % 0 mm 188.0 W/m2 CLR
17:54 -5.7 °C -13.2 °C 34269.7 hPa Calm     42 % 0 mm 186.0 W/m2 CLR
17:59 -5.7 °C -12.9 °C 34279.9 hPa Calm     43 % 0 mm 165.0 W/m2 CLR
18:04 -5.6 °C -12.9 °C 34279.9 hPa Calm     43 % 0 mm 146.0 W/m2 CLR
18:09 -5.6 °C -12.9 °C 34279.9 hPa Calm     43 % 0 mm 128.0 W/m2 CLR
18:14 -5.6 °C -12.9 °C 34279.9 hPa Calm     43 % 0 mm 111.0 W/m2 CLR
18:19 -5.6 °C -12.9 °C 34279.9 hPa Calm     43 % 0 mm 91.0 W/m2 CLR
18:24 -5.7 °C -12.9 °C 34269.7 hPa Calm     43 % 0 mm 77.0 W/m2 FEW
18:29 -5.7 °C -12.9 °C 34279.9 hPa Calm     43 % 0 mm 54.0 W/m2 SCT
18:34 -5.7 °C -13.3 °C 34269.7 hPa Calm     41 % 0 mm 49.0 W/m2 SCT
18:39 -5.7 °C -13.2 °C 34279.9 hPa Calm     42 % 0 mm 35.0 W/m2 BKN
18:44 -5.8 °C -13.1 °C 34279.9 hPa Calm     43 % 0 mm 25.0 W/m2 BKN
18:49 -6 °C -12.4 °C 34279.9 hPa Calm     48 % 0 mm 14.0 W/m2 BKN
18:54 -6.3 °C -13.2 °C 34279.9 hPa Calm     45 % 0 mm 12.0 W/m2 BKN
18:59 -6.7 °C -13.2 °C 34279.9 hPa Calm     47 % 0 mm 11.0 W/m2 BKN
19:04 -6.9 °C -13.2 °C 34279.9 hPa Calm     48 % 0 mm 7.0 W/m2 BKN
19:09 -7.1 °C -13.2 °C 34279.9 hPa Calm     49 % 0 mm 5.0 W/m2 OVC
19:14 -7.2 °C -13.3 °C 34279.9 hPa Calm     49 % 0 mm 0.0 W/m2 OVC
19:19 -7.3 °C -13.2 °C 34279.9 hPa Calm     50 % 0 mm 0.0 W/m2 OVC
19:25 -7.4 °C -13.3 °C 34279.9 hPa Calm     50 % 0 mm 0.0 W/m2 CLR
19:26 -7.4 °C -13.2 °C 34279.9 hPa Calm     51 % 0 mm 0.0 W/m2 CLR
19:31 -7.7 °C -13.2 °C 34279.9 hPa Calm     53 % 0 mm 0.0 W/m2 CLR
19:36 -8 °C -12.9 °C 34279.9 hPa Calm     56 % 0 mm 0.0 W/m2 CLR
19:41 -8.3 °C -12.9 °C 34293.4 hPa Calm     58 % 0 mm 0.0 W/m2 CLR
19:46 -8.5 °C -13 °C 34293.4 hPa Calm     59 % 0 mm 0.0 W/m2 CLR
19:51 -8.7 °C -12.9 °C 34293.4 hPa Calm     61 % 0 mm 0.0 W/m2 CLR
19:56 -9 °C -13 °C 34293.4 hPa Calm     62 % 0 mm 0.0 W/m2 CLR
20:01 -9.2 °C -13.1 °C 34293.4 hPa Calm     63 % 0 mm 0.0 W/m2 CLR
20:06 -9.4 °C -13 °C 34303.6 hPa Calm     65 % 0 mm 0.0 W/m2 CLR
20:11 -9.6 °C -13 °C 34303.6 hPa Calm     66 % 0 mm 0.0 W/m2 CLR
20:16 -9.6 °C -13.1 °C 34303.6 hPa Calm     66 % 0 mm 0.0 W/m2 CLR
20:21 -9.8 °C -13.2 °C 34303.6 hPa Calm     67 % 0 mm 0.0 W/m2 CLR
20:26 -9.9 °C -13.2 °C 34303.6 hPa Calm     68 % 0 mm 0.0 W/m2 CLR
20:31 -10.1 °C -13.2 °C 34303.6 hPa Calm     69 % 0 mm 0.0 W/m2 CLR
20:41 -10.3 °C -13.2 °C 34313.7 hPa Calm     71 % 0 mm 0.0 W/m2 CLR
20:46 -10.4 °C -13.1 °C 34313.7 hPa Calm     72 % 0 mm 0.0 W/m2 CLR
20:51 -10.4 °C -13.2 °C 34313.7 hPa Calm     72 % 0 mm 0.0 W/m2 CLR
20:56 -10.5 °C -13.2 °C 34313.7 hPa Calm     72 % 0 mm 0.0 W/m2 CLR
21:01 -10.6 °C -13.2 °C 34313.7 hPa Calm     73 % 0 mm 0.0 W/m2 CLR
21:06 -10.6 °C -13.2 °C 34327.3 hPa Calm     73 % 0 mm 0.0 W/m2 CLR
21:11 -10.7 °C -13.3 °C 34327.3 hPa Calm     73 % 0 mm 0.0 W/m2 CLR
21:16 -10.8 °C -13.3 °C 34327.3 hPa Calm     74 % 0 mm 0.0 W/m2 CLR
21:21 -10.9 °C -13.4 °C 34327.3 hPa Calm     75 % 0 mm 0.0 W/m2 CLR
21:26 -11.1 °C -13.4 °C 34327.3 hPa Calm     75 % 0 mm 0.0 W/m2 CLR
21:31 -11.2 °C -13.4 °C 34327.3 hPa Calm     76 % 0 mm 0.0 W/m2 CLR
21:36 -11.2 °C -13.5 °C 34327.3 hPa Calm     76 % 0 mm 0.0 W/m2 CLR
21:41 -11.3 °C -13.6 °C 34337.4 hPa Calm     76 % 0 mm 0.0 W/m2 CLR
21:46 -11.3 °C -13.6 °C 34337.4 hPa Calm     76 % 0 mm 0.0 W/m2 CLR
21:51 -11.3 °C -13.5 °C 34337.4 hPa Calm     77 % 0 mm 0.0 W/m2 CLR
21:56 -11.4 °C -13.6 °C 34337.4 hPa Calm     77 % 0 mm 0.0 W/m2 CLR
22:01 -11.4 °C -13.6 °C 34337.4 hPa Calm     77 % 0 mm 0.0 W/m2 CLR
22:06 -11.6 °C -13.7 °C 34337.4 hPa Calm     78 % 0 mm 0.0 W/m2 CLR
22:11 -11.6 °C -13.7 °C 34337.4 hPa Calm     78 % 0 mm 0.0 W/m2 CLR
22:16 -11.7 °C -13.7 °C 34337.4 hPa Calm     79 % 0 mm 0.0 W/m2 CLR
22:21 -11.8 °C -13.7 °C 34337.4 hPa Calm     79 % 0 mm 0.0 W/m2 CLR
22:26 -11.8 °C -13.8 °C 34337.4 hPa Calm     79 % 0 mm 0.0 W/m2 CLR
22:31 -11.8 °C -13.7 °C 34337.4 hPa Calm     80 % 0 mm 0.0 W/m2 CLR
22:36 -11.9 °C -13.7 °C 34337.4 hPa Calm     80 % 0 mm 0.0 W/m2 CLR
22:41 -11.9 °C -13.8 °C 34337.4 hPa Calm     80 % 0 mm 0.0 W/m2 CLR
22:46 -11.9 °C -13.8 °C 34337.4 hPa Calm     80 % 0 mm 0.0 W/m2 CLR
22:51 -12 °C -13.8 °C 34347.6 hPa Calm     80 % 0 mm 0.0 W/m2 CLR
22:56 -12.1 °C -13.8 °C 34337.4 hPa Calm     80 % 0 mm 0.0 W/m2 CLR
23:01 -12.1 °C -13.9 °C 34337.4 hPa Calm     80 % 0 mm 0.0 W/m2 CLR
23:11 -12.2 °C -14 °C 34347.6 hPa Calm     80 % 0 mm 0.0 W/m2 CLR
23:16 -12.2 °C -13.9 °C 34347.6 hPa Calm     81 % 0 mm 0.0 W/m2 CLR
23:21 -12.3 °C -14 °C 34347.6 hPa Calm     81 % 0 mm 0.0 W/m2 CLR
23:26 -12.3 °C -14.1 °C 34347.6 hPa Calm     81 % 0 mm 0.0 W/m2 CLR
23:31 -12.3 °C -14 °C 34347.6 hPa Calm     82 % 0 mm 0.0 W/m2 CLR
23:36 -12.3 °C -13.9 °C 34347.6 hPa Calm     82 % 0 mm 0.0 W/m2 CLR
23:41 -12.3 °C -13.9 °C 34347.6 hPa Calm     82 % 0 mm 0.0 W/m2 CLR
23:46 -12.3 °C -13.9 °C 34337.4 hPa Calm     82 % 0 mm 0.0 W/m2 CLR
23:51 -12.3 °C -13.9 °C 34337.4 hPa Calm     82 % 0 mm 0.0 W/m2 CLR
23:56 -12.2 °C -13.9 °C 34337.4 hPa Calm     81 % 0 mm 0.0 W/m2 CLR
Lo Temps de Massalio
Compliments of Weather Underground - 1.25 mb